{"data":{"norad_id":58237,"epoch":"2026-05-25T04:19:12.141696Z","epoch_age_seconds":53257,"freshness":"FRESH","line1":"1 58237U 23171H   26145.18000164  .00001454  00000+0  62353-4 0  9993","line2":"2 58237  43.0044 213.1687 0001953 272.8609  87.2019 15.27575783141432","mean_motion":15.27575783,"eccentricity":0.0001953,"inclination_deg":43.0044,"raan_deg":213.1687,"arg_perigee_deg":272.8609,"mean_anomaly_deg":87.2019,"bstar":6.2353e-5,"rev_number":14143,"period_min":94.267008944852,"perigee_km":481.7217311731,"apogee_km":484.40171539442,"semimajor_km":6861.1987232838,"source":"CELESTRAK","updated_at":"2026-05-25T13:38:18.580618Z"}}